Regional Weather Roundup
Issued by NWS State College, PA

Home | Current Version | Previous Version | Text Only | Print | Product List | Glossary On
Versions: 1 2 3 4 5 6 7 8 9 10 11 12 13 14 15 16 17 18 19 20 21 22 23 24 25 26 27 28 29 30 31 32 33 34 35 36 37 38 39 40 41 42 43 44 45 46 47 48 49 50
000
ASUS41 KCTP 071610
RWRCTP

REGIONAL WEATHER ROUNDUP
NATIONAL WEATHER SERVICE STATE COLLEGE PA
1200 PM EDT TUE JUL 07 2015

Note: "fair" indicates few or no clouds below 12,000 feet with no
significant weather and/or obstructions to visibility.

* = STATION THAT DOES NOT REPORT PRECIPITATION /E.G. RAIN...SNOW...ETC/
    THUNDER OR FOG.

PAZ002>004-007>009-013>016-020>023-029>032-071700-
WESTERN PENNSYLVANIA

CITY           SKY/WX    TMP DP  RH WIND       PRES   REMARKS
ERIE           MOSUNNY   84  70  62 S15G23    29.91F
MEADVILLE      PTSUNNY   80  68  66 SW10G20   29.98F HAZE
FRANKLIN*      PTSUNNY   79  68  69 S15       30.02F
NEW CASTLE     PTSUNNY   82  73  74 SW14      30.00S
BEAVER COUNTY  CLOUDY    79  72  78 S9G18     30.01F
BUTLER*        PTSUNNY   81  70  69 W12       30.04S
PITTSBURGH INT PTSUNNY   81  68  64 SW10G20   30.02F
PITTSBURGH     PTSUNNY   79  66  64 S16G22    30.03F
INDIANA*       MOSUNNY   81  72  74 W10       30.08F
LATROBE        MOSUNNY   79  72  78 SW12      30.06S
WASHINGTON CO* NOT AVBL
$$

PAZ004>006-010>012-017>019-024>028-033>037-041-042-045-046-049>053-071700-
CENTRAL PENNSYLVANIA

CITY           SKY/WX    TMP DP  RH WIND       PRES   REMARKS
BRADFORD       PTSUNNY   77  64  64 MISG      30.04F
DUBOIS         MOSUNNY   79  67  66 SW12      30.04F
CLEARFIELD     PTSUNNY   77  67  71 SW8       30.05F
JOHNSTOWN      MOSUNNY   77  63  61 SW12G18   30.10S
ALTOONA        SUNNY     79  69  71 VRB6      30.07F
STATE COLLEGE  MOSUNNY   79  70  73 SW7       30.05F
WILLIAMSPORT   PTSUNNY   79  69  71 W7        30.00F
SELINSGROVE    PTSUNNY   81  71  71 W3        30.02F
FT INDIANTOWN  PTSUNNY   81  71  70 SW8       30.02F
CAPITAL CITY   MOSUNNY   81  70  69 SW7       30.03F
HARRISBURG     MOSUNNY   80  71  74 VRB3      30.02F
YORK           PTSUNNY   81  71  71 W6        30.04F
$$

PAZ038>040-043-044-047-048-054-055-060>062-067>071-071700-
EASTERN PENNSYLVANIA

CITY           SKY/WX    TMP DP  RH WIND       PRES   REMARKS
SCRANTON       PTSUNNY   81  69  67 SW7       30.02F
MOUNT POCONO   CLOUDY    75  66  73 SW7       30.08S
ALLENTOWN      PTSUNNY   82  71  69 SW7       30.02S
QUAKERTOWN*    MOSUNNY   82  73  74 S7        30.04F
READING        PTSUNNY   84  71  65 SW8       30.01F
LANCASTER      MOSUNNY   81  70  69 W9        30.03F
COATESVILLE    MOSUNNY   81  73  78 SW3       30.06S
POTTSTOWN      PTSUNNY   81  71  71 SW3       30.04F
BLUE BELL      MOSUNNY   84  72  65 SW8       30.03S
DOYLESTOWN     PTSUNNY   81  70  69 S6        30.03F
WILLOW GROVE   NOT AVBL
NORTH PHILA    SUNNY     85  68  56 SW8       30.03F
PHILADELPHIA   MOSUNNY   84  70  62 SW7       30.03F
$$



USA.gov is the U.S. government's official web portal to all federal, state and local government web resources and services.